STARLINK-4009 (52624 NORAD) Tracking and Keplerian Element Data

This shows tracking and keplerian element data for the satellite.

Feedback or suggestion? Click here.




ElementValue
Catalog52624
NameSTARLINK-4009
Epoch Orbit130
Epoch Day192.91667824
Epoch Year2022
RAAN152.989
Inclination53.2176
Eccentricity0.0001155
Argument of Perigee86.3919
Mean Anonmoly105.5499
Mean Motion15.49908838
Decay Rate-0.00036677
L11 52624U 22052AC 22192.91667824 -.00036677 00000+0 -64074-3 0 9993
L22 52624 53.2176 152.9890 0001155 86.3919 105.5499 15.49908838 1309

Live tracking and technical data element details for STARLINK-4009 (NORAD 52624). STARLINK-4009 can be tracked NOW for your location showing map with azimuth and elevation plus other details from your city location.

Track the satellite on the map from your city or location and see movement details for azimuth, elevation, latitude, longitude, range, height, and movement on the map or in text.







IsCatalogInMostPopularTable: catalog: 52624, numindb: 7
Update: records affected: 1



GetName: 52624 STARLINK-4009

Hit Count: updated at: Sun, 14 Aug 2022 01:40:05 GMT